This demonstration page uses our WeatherBlox Daily Observations layout. Learn more.

Left ArrowRight Arrow

Hourly Observations for May 11, 2022

Temp ( °F °C ) Dew Point ( °F °C ) Humidity (%) Winds ( mph kmh ) Pressure ( in mb ) Visibility ( mi km ) Precip ( " mm )
12:56 am 00:56 Clear 78 25.7 72 22.4 82 82 SE 12 19 29.93 1014 10 16 0.00 0.00
1:56 am 01:56 Clear 78 25.4 73 22.7 85 85 SSE 12 19 29.94 1014 9 14 0.00 0.00
2:56 am 02:56 Mostly Clear 77 25.2 73 23 88 88 SSE 8 13 29.94 1014 8 13 0.00 0.00
3:56 am 03:56 Partly Cloudy 76 24.5 74 23.3 93 93 SSE 7 11 29.97 1015 7 11 0.00 0.00
4:56 am 04:56 Mostly Cloudy with Mist and Fog 76 24.4 74 23.5 95 95 SE 6 9 29.98 1015 5 8 0.00 0.00
5:56 am 05:56 Mostly Cloudy with Mist and Fog 76 24.4 74 23.2 93 93 SE 5 7 29.98 1015 6 10 0.00 0.00
6:56 am 06:56 Partly Cloudy with Mist and Fog 76 24.3 73 22.9 92 92 SSE 8 13 29.99 1016 5 8 0.00 0.00
7:56 am 07:56 Cloudy with Mist and Fog 77 25 73 22.7 87 87 SSE 9 15 30.01 1016 6 10 0.00 0.00
8:56 am 08:56 Mostly Cloudy 77 24.9 72 22.4 86 86 SSE 12 19 30.03 1017 7 11 0.00 0.00
9:56 am 09:56 Mostly Cloudy 78 25.8 72 22.3 81 81 SSE 9 15 30.02 1017 8 13 0.00 0.00
10:56 am 10:56 Sunny 83 28.1 72 22.1 70 70 SSE 9 15 29.96 1015 8 13 0.00 0.00
11:52 am 11:52 undefined 86 30 72 22 62 62 S 12 19 29.97 1015 10 16 0.00 0.00
11:56 am 11:56 undefined 86 30.2 70 21.3 59 59 S 13 20 29.97 1015 10 16 0.00 0.00
12:56 pm 12:56 undefined 89 31.9 69 20.8 52 52 SSE 16 26 29.94 1014 10 16 0.00 0.00
1:56 pm 13:56 Mostly Sunny 92 33.5 64 18 40 40 SSE 23 37 29.92 1013 8 13 0.00 0.00
2:56 pm 14:56 Mostly Sunny 94 34.2 63 17.4 37 37 SSE 25 41 29.89 1012 10 16 0.00 0.00
3:56 pm 15:56 Mostly Cloudy 94 34.5 62 16.8 35 35 S 23 37 29.86 1011 10 16 0.00 0.00
4:56 pm 16:56 Mostly Cloudy 93 33.7 61 16.1 35 35 S 25 41 29.84 1011 7 11 0.00 0.00
5:56 pm 17:56 Mostly Cloudy 93 33.7 62 16.9 37 37 S 22 35 29.84 1011 10 16 0.00 0.00
6:56 pm 18:56 Sunny 91 32.8 64 17.8 41 41 S 20 31 29.84 1011 9 14 0.00 0.00
7:56 pm 19:56 Sunny 88 31 67 19.3 50 50 S 18 30 29.85 1011 10 16 0.00 0.00
8:56 pm 20:56 Clear 85 29.6 67 19.3 54 54 S 16 26 29.87 1012 10 16 0.00 0.00
9:56 pm 21:56 Clear 84 28.7 66 18.7 55 55 S 15 24 29.89 1012 10 16 0.00 0.00
10:56 pm 22:56 Clear 81 27.3 66 18.8 60 60 S 10 17 29.92 1013 10 16 0.00 0.00
11:56 pm 23:56 Clear 79 26 66 18.9 65 65 SSE 9 15 29.91 1013 10 16 0.00 0.00

Powered by AerisWeather